Lanai City, HI

1:07 AM HST on December 12, 2017 (GMT -1000)
Lanai City

Weather History for PHNY - July, 2013

Change the Weather History Date:

Friday, July 26, 2013

  Actual Average Record
Temperature  
Mean Temperature 74 °F -  
Max Temperature 84 °F 82 °F 86 °F (2014)
Min Temperature 64 °F 66 °F 58 °F (1954)
Cooling Degree Days 9    
Growing Degree Days 24 (Base 50)    
Moisture  
Dew Point 65 °F    
Average Humidity 70    
Maximum Humidity 94    
Minimum Humidity 54    
Precipitation  
Precipitation 0.00 in - - ()
Sea Level Pressure  
Sea Level Pressure 30.02 in    
Wind  
Wind Speed 8 mph (NE)    
Max Wind Speed 22 mph    
Max Gust Speed 28 mph    
Visibility 10 miles    
Events      
Averages and records for this station are not official NWS values.
T = Trace of Precipitation, MM = Missing Value Source: NWS Daily Summary

Daily Weather History Graph

Daily Weather History Graph

Search for Another Location

Airport or City:

Trip Planner

Search our weather history database for the weather conditions in past years. The results will help you decide how hot, cold, wet, or windy it might be!

Date:

Astronomy

Jul. 26, 2013 Rise Set
Actual Time 5:59 AM HST 7:08 PM HST
Civil Twilight 5:36 AM HST 7:32 PM HST
Nautical Twilight 5:07 AM HST 8:00 PM HST
Astronomical Twilight 4:38 AM HST 8:29 PM HST
Moon 10:16 PM HST (7/26) 10:04 AM HST (7/26)
Length of Visible Light 13h 56m
Length of Day
13h 08m
Waning Gibbous, 78% of the Moon is Illuminated
Jul 26
Waning Gibbous
Jul 29
Last Quarter
Aug 6
New
Aug 14
First Quarter
Aug 20
Full

Hourly Weather History & Observations

Time (HST) Temp. Heat Index Dew Point Humidity Pressure Visibility Wind Dir Wind Speed Gust Speed Precip Events Conditions
12:56 AM 68.9 °F - 63.9 °F 84% 29.96 in 10.0 mi East 5.8 mph - N/A   Partly Cloudy
1:56 AM 71.6 °F - 64.4 °F 78% 30.02 in 10.0 mi NNE 8.1 mph - N/A   Overcast
2:10 AM 71.6 °F - 64.4 °F 78% 30.02 in 10.0 mi NNE 6.9 mph - N/A   Overcast
2:56 AM 70.0 °F - 64.9 °F 84% 29.94 in 10.0 mi Calm Calm - N/A   Partly Cloudy
3:56 AM 66.9 °F - 63.0 °F 87% 29.95 in 10.0 mi North 6.9 mph - N/A   Clear
4:56 AM 66.2 °F - 64.4 °F 94% 30.01 in - ENE 4.6 mph - N/A   Clear
5:56 AM 64.9 °F - 63.0 °F 93% 29.98 in 10.0 mi ENE 6.9 mph - N/A   Clear
6:56 AM 68.9 °F - 64.9 °F 87% 29.99 in 10.0 mi ENE 6.9 mph - N/A   Clear
7:05 AM 69.8 °F - 66.2 °F 88% 30.04 in 10.0 mi ENE 5.8 mph - N/A   Partly Cloudy
7:56 AM 74.8 °F - 64.9 °F 71% 29.99 in 10.0 mi Variable 3.5 mph - N/A   Clear
8:10 AM 75.2 °F - 64.4 °F 69% 30.06 in 10.0 mi NE 4.6 mph - N/A   Scattered Clouds
8:21 AM 77.0 °F - 64.4 °F 65% 30.06 in 10.0 mi NNE 8.1 mph - N/A   Mostly Cloudy
8:29 AM 78.8 °F - 64.4 °F 61% 30.06 in 10.0 mi NNE 6.9 mph - N/A   Scattered Clouds
8:50 AM 78.8 °F - 64.4 °F 61% 30.06 in 10.0 mi Calm Calm - N/A   Scattered Clouds
8:56 AM 77.9 °F - 63.9 °F 62% 30.00 in 10.0 mi NNE 4.6 mph - N/A   Clear
9:30 AM 80.6 °F 82.7 °F 66.2 °F 61% 30.06 in 10.0 mi WSW 5.8 mph - N/A   Mostly Cloudy
9:50 AM 78.8 °F - 66.2 °F 65% 30.07 in 10.0 mi WSW 5.8 mph - N/A   Mostly Cloudy
9:56 AM 77.9 °F - 64.9 °F 64% 30.00 in 10.0 mi SW 5.8 mph - N/A   Overcast
10:50 AM 80.6 °F 82.7 °F 66.2 °F 61% 30.06 in 10.0 mi WSW 8.1 mph - N/A   Scattered Clouds
10:56 AM 80.6 °F 82.7 °F 66.2 °F 61% 30.06 in 10.0 mi West 8.1 mph - N/A   Scattered Clouds
11:18 AM 78.8 °F - 64.4 °F 61% 30.07 in 10.0 mi WNW 5.8 mph - N/A   Mostly Cloudy
11:50 AM 78.8 °F - 66.2 °F 65% 30.06 in 10.0 mi North 10.4 mph - N/A   Mostly Cloudy
11:56 AM 79.9 °F - 65.8 °F 62% 30.00 in 10.0 mi Variable 5.8 mph - N/A   Overcast
12:28 PM 84.2 °F 86.6 °F 66.2 °F 55% 30.05 in 10.0 mi NNE 15.0 mph 19.6 mph N/A   Scattered Clouds
12:55 PM 82.4 °F 83.9 °F 64.4 °F 54% 30.05 in 10.0 mi NE 8.1 mph - N/A   Mostly Cloudy
12:56 PM 82.9 °F 84.6 °F 64.9 °F 54% 29.99 in 10.0 mi East 8.1 mph - N/A   Partly Cloudy
1:32 PM 80.6 °F 82.7 °F 66.2 °F 61% 30.05 in 10.0 mi West 6.9 mph - N/A   Overcast
1:56 PM 80.6 °F 82.7 °F 66.2 °F 61% 30.04 in 10.0 mi North 8.1 mph - N/A   Overcast
2:33 PM 80.6 °F 82.7 °F 66.2 °F 61% 30.04 in 10.0 mi NE 15.0 mph - N/A   Overcast
2:50 PM 82.4 °F 84.6 °F 66.2 °F 58% 30.03 in 10.0 mi NNE 15.0 mph - N/A   Mostly Cloudy
2:56 PM 82.9 °F 85.4 °F 66.9 °F 58% 29.96 in 10.0 mi NE 17.3 mph - N/A   Mostly Cloudy
3:56 PM 82.9 °F 85.4 °F 66.9 °F 58% 29.97 in 10.0 mi NE 18.4 mph 24.2 mph N/A   Clear
4:56 PM 77.9 °F - 66.9 °F 69% 29.98 in 10.0 mi NNE 19.6 mph 25.3 mph N/A   Clear
5:56 PM 75.9 °F - 65.8 °F 71% 29.99 in 10.0 mi NE 15.0 mph - N/A   Clear
6:56 PM 73.9 °F - 64.9 °F 73% 29.99 in 10.0 mi NE 15.0 mph 26.5 mph N/A   Clear
7:56 PM 72.9 °F - 65.8 °F 79% 29.99 in 10.0 mi NNE 21.9 mph 27.6 mph N/A   Clear
8:56 PM 72.0 °F - 65.8 °F 81% 30.02 in 10.0 mi East 9.2 mph 20.7 mph N/A   Partly Cloudy
9:56 PM 72.9 °F - 63.9 °F 73% 30.04 in 10.0 mi East 12.7 mph 23.0 mph N/A   Clear
10:56 PM 70.0 °F - 63.9 °F 81% 30.05 in 10.0 mi ESE 6.9 mph - N/A   Clear
11:56 PM 70.0 °F - 64.9 °F 84% 30.04 in 10.0 mi East 5.8 mph - N/A   Mostly Cloudy